Wind_Speed
13 13 13 12 12 12 12 12 12 11 12 12 11 11 11 10 10 10 11 10 10 10 11 11 10 9 9 9 8 8 7 7 7 7 7 7 6 5 5 5 5 4 4 4
14 13 13 13 13 12 12 12 11 11 11 12 12 11 11 11 11 11 10 10 10 10 11 10 10 9 9 9 9 9 8 8 8 7 6 6 6 5 5 5 5 4 3 4
15 14 14 13 13 12 12 12 12 12 12 12 12 11 11 11 11 11 11 11 10 10 10 11 10 10 10 9 9 9 8 8 8 7 6 6 6 5 4 4 5 5 4 4
15 15 15 14 13 13 13 13 14 14 13 12 12 11 10 11 11 11 11 11 10 10 11 11 11 10 11 10 9 9 9 8 8 8 8 7 6 5 5 5 5 5 5 5
16 15 16 15 14 14 14 14 14 14 14 13 12 12 9 10 10 10 11 11 11 11 11 11 11 11 11 11 10 9 9 9 9 9 8 7 6 7 6 6 5 5 5 5
17 17 17 15 15 15 15 14 14 14 14 13 12 12 9 10 10 11 11 12 11 11 11 11 11 11 11 11 11 11 10 9 9 9 8 8 8 8 8 7 7 6 6 5
17 17 16 15 15 15 14 14 15 15 15 13 13 13 10 11 11 11 11 11 11 11 11 11 11 11 11 11 10 11 11 9 9 9 9 9 9 9 9 9 8 7 6 6
18 17 16 16 16 15 15 15 15 16 15 13 14 14 12 12 11 11 11 11 11 10 10 10 10 10 11 11 10 10 11 10 9 9 9 9 10 10 10 10 9 8 7 7
19 18 17 17 16 16 16 16 15 16 16 15 15 14 13 12 11 11 11 11 10 10 10 10 11 11 11 11 10 9 11 11 10 9 9 10 10 10 11 10 10 9 8 7
21 20 19 18 18 17 17 16 16 16 17 17 15 14 13 12 11 10 11 12 12 11 11 10 11 11 11 11 11 10 10 10 10 10 9 10 11 11 11 11 10 9 8 7
22 22 21 20 20 18 17 18 18 18 18 18 17 15 14 13 12 12 12 12 12 11 10 9 9 10 10 10 10 9 9 10 10 11 10 11 11 11 11 10 10 10 9 8
24 23 22 21 20 20 19 19 18 18 18 18 18 16 14 14 14 13 13 12 11 10 10 9 9 9 8 8 9 9 10 10 10 11 11 12 12 12 12 11 11 11 10 10
25 25 24 23 22 22 21 20 20 19 19 19 19 16 14 14 14 14 13 12 10 9 9 9 9 9 9 8 9 9 10 11 11 12 12 12 13 12 12 11 11 11 11 10
27 27 26 25 23 23 22 22 21 21 20 19 18 16 15 14 14 13 13 12 10 10 10 10 9 9 9 9 10 10 10 10 11 11 12 13 13 13 12 12 12 11 11 11
28 28 27 26 25 25 25 24 23 22 21 19 17 16 15 14 13 13 13 12 11 10 10 10 9 9 10 10 10 11 10 10 10 11 12 13 13 14 13 13 12 12 11 11
30 29 28 28 27 26 26 25 24 22 21 20 18 16 15 15 14 14 13 11 10 10 10 9 9 10 10 11 10 11 11 11 11 12 12 13 13 13 13 13 13 12 12 12
32 31 30 29 29 28 27 25 24 23 21 20 19 16 16 15 15 14 13 11 10 10 10 10 10 10 11 11 11 11 11 12 12 12 12 13 13 13 13 13 13 13 13 12
33 32 32 31 30 31 26 24 24 23 22 21 19 17 16 15 14 14 13 12 12 11 10 11 10 11 12 12 12 12 12 12 12 13 13 13 13 13 13 14 14 14 14 13
32 33 33 33 32 30 27 25 24 24 23 22 20 18 17 16 15 15 14 13 13 12 11 11 11 11 13 13 13 13 13 12 12 13 14 14 14 14 14 14 14 15 14 14
32 33 35 34 34 32 27 24 24 25 24 22 21 20 18 17 16 15 15 14 14 13 12 12 11 11 12 13 13 13 14 13 13 13 14 14 14 15 15 15 15 16 16 15
32 33 34 34 34 32 27 25 25 26 22 21 21 21 20 18 16 16 16 16 14 13 14 13 13 12 12 13 13 13 14 14 13 14 14 14 14 14 14 15 15 16 16 16
32 33 33 34 33 30 26 26 26 24 22 22 22 21 20 18 18 17 17 17 16 15 15 15 14 13 13 13 14 14 15 15 14 14 15 15 15 15 15 15 15 15 16 17
33 33 33 32 31 29 28 27 26 24 24 23 22 22 21 19 18 17 18 17 17 16 15 15 15 15 15 15 15 15 15 15 15 15 15 15 16 16 16 16 16 16 16 17
31 32 33 32 29 30 29 28 26 25 24 23 22 22 22 21 19 19 19 18 18 17 16 16 16 16 15 16 15 16 16 15 16 15 15 16 16 17 17 17 17 17 17 17
31 32 32 32 30 31 30 29 26 26 25 24 23 22 22 22 21 20 20 19 18 18 17 17 17 16 16 17 17 17 16 16 16 16 17 16 16 17 17 17 17 18 18 18
29 31 32 30 30 32 30 30 28 27 26 25 24 23 21 20 21 21 21 20 19 18 18 18 18 17 17 17 18 18 17 17 17 17 18 18 17 17 18 18 18 18 19 19
Wind_Direction
252 254 256 257 257 259 261 264 269 274 276 280 283 282 283 286 286 287 288 291 292 291 292 293 291 290 289 289 291 291 285 272 266 265 269 270 262 250 243 231 220 217 222 212
250 253 255 252 253 258 262 267 272 277 278 282 283 282 281 285 285 287 289 291 293 291 291 292 290 286 284 282 286 290 282 266 262 260 263 263 250 245 233 213 206 200 200 196
252 252 252 252 255 259 262 267 271 277 278 282 284 282 283 281 283 287 290 290 290 291 291 288 286 286 282 279 278 279 280 267 257 254 253 249 248 245 220 212 213 206 200 199
248 248 250 251 252 256 258 263 268 273 275 278 281 283 283 282 285 288 289 290 290 290 289 287 284 284 283 279 276 274 275 265 256 250 243 237 237 221 212 208 210 204 195 191
246 246 249 250 251 252 255 261 265 270 273 276 280 280 282 283 288 288 289 291 291 291 288 286 285 283 281 277 272 268 264 260 253 249 241 232 224 217 212 210 214 207 200 195
245 245 248 250 250 251 254 258 262 267 270 273 280 281 285 285 287 288 290 291 291 289 287 285 282 279 274 272 269 261 254 254 251 243 238 229 220 217 214 214 212 206 202 198
242 243 246 246 247 250 253 255 260 263 267 273 276 278 285 284 287 292 293 293 292 288 284 284 281 278 275 273 270 257 250 248 247 241 235 228 221 214 214 212 208 206 204 202
241 241 241 243 245 249 252 254 258 265 269 272 271 275 281 285 288 291 292 293 293 290 285 283 282 277 274 271 263 256 252 249 246 241 234 222 217 214 212 209 207 206 207 208
243 242 240 242 245 248 251 253 257 262 267 269 271 275 277 282 287 289 292 296 295 290 287 283 279 274 272 268 260 252 248 246 241 235 227 221 216 212 208 209 210 210 213 215
244 242 239 239 242 245 250 252 253 257 264 269 272 275 277 281 286 287 288 292 292 290 287 284 278 272 269 264 255 244 238 235 233 229 227 220 213 209 208 210 211 211 213 215
244 245 241 239 239 243 245 247 250 255 262 268 271 274 276 280 284 286 287 289 288 284 285 282 275 271 267 259 248 239 233 232 232 229 226 220 214 211 212 212 212 212 215 219
244 245 243 241 241 242 245 248 251 255 263 266 270 272 273 276 283 286 289 288 286 282 280 280 275 267 259 253 246 241 236 233 229 227 223 217 215 214 216 218 219 218 217 219
242 244 244 240 239 240 243 247 250 254 260 264 268 269 268 271 276 281 285 284 285 280 277 275 272 263 253 248 243 242 238 234 230 227 221 217 216 215 218 220 218 217 217 219
241 243 245 244 243 242 243 246 250 253 257 261 265 266 266 267 271 277 278 277 279 276 273 269 265 258 246 241 238 238 236 237 231 225 217 213 214 215 216 218 220 221 219 220
237 241 244 244 244 244 245 246 248 253 257 261 261 263 267 264 265 270 272 273 273 270 271 267 262 257 247 242 239 237 236 232 226 221 216 216 216 217 218 219 222 222 222 223
234 237 242 244 244 245 244 245 248 251 255 258 259 259 264 263 261 265 266 268 268 266 263 259 258 255 247 243 240 236 235 231 228 222 219 218 218 220 220 220 221 223 223 225
232 235 239 241 243 245 243 243 247 249 251 254 255 255 257 258 259 263 263 264 266 263 260 257 256 256 245 242 238 234 233 229 226 222 222 220 220 221 222 223 223 223 224 227
233 233 237 240 242 243 245 243 245 248 249 251 253 252 252 254 255 256 259 260 262 261 260 257 257 252 245 245 241 234 232 230 226 223 222 220 222 222 223 226 226 227 229 232
236 235 237 239 242 243 243 242 244 247 248 249 250 250 249 250 248 250 253 256 257 258 259 259 256 248 243 241 239 236 231 229 227 223 222 223 224 225 226 228 230 230 231 234
236 236 237 239 242 242 242 242 244 246 245 245 248 248 247 247 246 249 253 254 255 255 254 255 255 250 242 237 235 235 233 230 228 226 225 225 226 227 228 230 232 232 233 236
236 236 237 239 242 243 241 240 242 243 242 243 245 246 247 247 247 248 250 252 253 254 251 251 251 249 242 237 234 234 234 233 234 231 228 227 229 230 231 232 234 235 237 239
235 236 237 240 242 240 240 239 242 245 244 242 242 243 245 247 247 247 247 247 249 251 251 250 248 246 242 239 236 236 235 235 237 236 234 231 232 232 235 237 238 240 239 243
236 237 239 242 243 240 238 239 240 240 240 239 239 239 241 243 245 246 245 244 245 247 247 247 246 247 244 241 238 237 236 238 239 239 238 238 237 236 237 239 241 244 244 246
236 237 239 242 242 239 237 237 238 238 239 238 238 238 238 240 243 244 244 243 245 245 244 245 246 247 246 244 241 238 239 240 239 240 242 243 240 239 239 240 242 246 247 248
236 237 238 240 240 238 237 238 239 239 238 237 238 237 237 240 243 243 242 242 243 243 241 243 245 246 245 244 242 240 240 242 241 241 242 241 240 240 240 242 245 248 249 249
236 236 237 239 238 238 237 237 238 237 236 236 235 237 238 239 240 241 240 240 240 241 241 242 242 242 243 243 243 242 241 240 241 242 242 242 242 242 242 246 249 252 252 250
Height
5865 5867 5867 5867 5867 5868 5868 5868 5868 5868 5867 5867 5866 5866 5866 5865 5865 5864 5863 5863 5862 5861 5861 5860 5859 5858 5858 5857 5857 5856 5856 5856 5856 5856 5855 5855 5855 5855 5855 5855 5855 5856 5856 5856
5863 5863 5864 5864 5864 5864 5865 5865 5865 5865 5864 5864 5863 5863 5863 5862 5862 5861 5861 5860 5859 5858 5858 5857 5856 5856 5855 5855 5854 5854 5854 5853 5853 5853 5853 5853 5853 5853 5854 5854 5854 5855 5856 5856
5858 5861 5860 5860 5861 5861 5862 5862 5862 5862 5861 5860 5861 5861 5860 5859 5859 5858 5858 5857 5856 5856 5855 5854 5853 5853 5853 5852 5852 5852 5852 5851 5851 5851 5852 5852 5852 5852 5853 5853 5854 5855 5855 5856
5854 5856 5856 5857 5858 5858 5858 5859 5858 5858 5858 5858 5858 5858 5857 5856 5856 5855 5855 5854 5853 5852 5852 5851 5850 5850 5849 5849 5849 5849 5849 5849 5849 5849 5850 5850 5851 5851 5852 5853 5854 5854 5855 5855
5850 5851 5852 5853 5854 5854 5855 5855 5855 5855 5854 5855 5854 5854 5855 5854 5853 5852 5851 5850 5850 5849 5849 5848 5847 5847 5846 5846 5847 5847 5847 5847 5847 5847 5848 5848 5849 5850 5851 5852 5853 5854 5855 5855
5846 5847 5848 5849 5850 5850 5851 5851 5851 5851 5851 5852 5851 5850 5852 5851 5850 5849 5848 5847 5846 5846 5845 5844 5844 5844 5843 5843 5843 5844 5844 5844 5845 5845 5846 5847 5848 5849 5850 5851 5852 5853 5854 5854
5841 5842 5843 5844 5845 5846 5847 5848 5848 5847 5847 5848 5847 5847 5849 5847 5846 5846 5845 5844 5843 5842 5842 5841 5841 5840 5840 5839 5840 5840 5841 5842 5843 5843 5844 5845 5846 5847 5849 5850 5851 5852 5853 5854
5835 5838 5839 5840 5841 5842 5843 5844 5845 5845 5844 5844 5843 5843 5845 5844 5843 5842 5841 5841 5840 5839 5838 5838 5837 5837 5837 5837 5837 5837 5838 5839 5840 5841 5842 5843 5844 5846 5847 5848 5850 5851 5852 5853
5830 5833 5834 5835 5836 5838 5838 5839 5840 5840 5839 5840 5840 5840 5841 5840 5840 5839 5838 5837 5837 5836 5835 5835 5834 5834 5834 5834 5834 5835 5836 5837 5838 5839 5840 5841 5843 5844 5846 5847 5848 5849 5851 5851
5824 5827 5829 5830 5831 5833 5834 5835 5835 5835 5835 5835 5836 5836 5837 5836 5836 5836 5835 5834 5833 5833 5832 5831 5831 5831 5831 5831 5831 5832 5833 5834 5835 5837 5838 5840 5841 5842 5844 5845 5847 5848 5849 5850
5818 5821 5824 5825 5826 5828 5829 5830 5830 5831 5831 5831 5831 5834 5833 5832 5832 5832 5831 5830 5830 5829 5829 5828 5828 5828 5828 5828 5829 5830 5831 5832 5833 5834 5836 5837 5839 5841 5842 5844 5845 5846 5847 5848
5812 5815 5817 5820 5822 5823 5824 5825 5826 5827 5827 5827 5827 5831 5829 5828 5828 5828 5828 5827 5826 5826 5826 5825 5825 5825 5825 5826 5826 5827 5828 5829 5830 5832 5833 5835 5837 5839 5840 5842 5843 5844 5845 5846
5805 5808 5810 5813 5817 5817 5818 5819 5820 5821 5822 5822 5822 5827 5825 5824 5824 5824 5824 5823 5823 5823 5823 5823 5823 5823 5823 5823 5824 5825 5826 5827 5828 5829 5831 5833 5835 5836 5838 5839 5841 5842 5843 5844
5798 5800 5804 5807 5809 5811 5812 5814 5815 5815 5816 5817 5818 5819 5820 5820 5819 5820 5820 5820 5820 5820 5820 5820 5820 5820 5821 5821 5822 5823 5823 5824 5826 5827 5829 5830 5832 5834 5836 5837 5838 5840 5841 5842
5790 5793 5796 5799 5802 5804 5806 5808 5809 5810 5811 5812 5814 5814 5815 5815 5815 5816 5816 5816 5816 5817 5817 5817 5817 5818 5818 5819 5819 5820 5821 5822 5823 5825 5826 5828 5830 5831 5833 5835 5836 5837 5839 5840
5783 5786 5789 5792 5794 5796 5799 5801 5803 5804 5806 5807 5808 5809 5810 5810 5811 5812 5812 5813 5813 5814 5814 5815 5815 5815 5815 5816 5817 5818 5819 5820 5821 5822 5824 5826 5827 5829 5830 5832 5834 5835 5836 5838
5775 5779 5782 5784 5787 5788 5791 5795 5797 5799 5800 5802 5803 5806 5805 5806 5807 5808 5809 5810 5810 5810 5811 5812 5813 5813 5813 5814 5814 5815 5816 5818 5819 5820 5822 5823 5825 5826 5828 5829 5831 5832 5834 5835
5767 5771 5774 5777 5780 5780 5788 5790 5791 5793 5795 5796 5798 5799 5801 5802 5803 5804 5805 5806 5807 5807 5808 5809 5809 5810 5811 5811 5812 5813 5814 5815 5816 5818 5819 5821 5822 5824 5825 5827 5828 5830 5831 5832
5759 5763 5766 5769 5770 5773 5779 5783 5785 5786 5788 5791 5793 5795 5796 5797 5799 5800 5801 5802 5803 5804 5805 5805 5806 5807 5808 5808 5809 5810 5811 5812 5813 5815 5816 5818 5819 5821 5822 5824 5825 5827 5828 5829
5751 5754 5758 5760 5763 5766 5774 5777 5778 5781 5782 5785 5787 5789 5791 5792 5794 5796 5797 5798 5799 5800 5801 5802 5803 5804 5805 5805 5806 5808 5808 5809 5811 5812 5813 5815 5816 5818 5819 5821 5822 5823 5825 5826
5742 5745 5748 5751 5754 5759 5766 5770 5771 5774 5778 5780 5781 5783 5785 5788 5790 5792 5792 5793 5795 5796 5797 5798 5799 5800 5801 5802 5803 5805 5806 5807 5808 5809 5811 5812 5813 5815 5816 5818 5819 5820 5821 5822
5735 5738 5741 5744 5747 5754 5760 5762 5764 5767 5771 5773 5775 5777 5779 5782 5784 5785 5787 5789 5790 5792 5793 5794 5795 5797 5798 5799 5800 5801 5802 5803 5804 5806 5807 5808 5810 5811 5813 5814 5815 5816 5817 5819
5727 5731 5734 5738 5743 5748 5751 5754 5757 5760 5763 5766 5768 5771 5774 5776 5778 5780 5782 5784 5785 5787 5788 5790 5791 5792 5794 5795 5796 5797 5799 5800 5801 5802 5803 5804 5806 5807 5809 5810 5811 5812 5813 5815
5719 5723 5726 5730 5734 5739 5742 5746 5749 5752 5755 5759 5761 5765 5767 5770 5772 5774 5776 5778 5780 5782 5783 5785 5786 5788 5789 5791 5792 5793 5794 5796 5797 5798 5799 5800 5801 5803 5804 5806 5807 5808 5809 5810
5711 5715 5718 5722 5726 5730 5734 5738 5742 5745 5748 5752 5755 5758 5761 5763 5766 5769 5771 5772 5774 5776 5778 5780 5782 5783 5785 5786 5787 5789 5790 5791 5793 5794 5795 5796 5798 5799 5800 5801 5802 5804 5805 5806
5703 5707 5711 5715 5719 5722 5727 5731 5734 5738 5741 5745 5748 5752 5754 5757 5759 5762 5764 5767 5769 5771 5773 5775 5777 5778 5780 5781 5783 5784 5786 5787 5789 5790 5791 5792 5794 5795 5796 5797 5798 5799 5800 5801